H1 CPF 2 NER 2022 10 10 9 283 01 glonass137 H2 1705501 9137 42939 2022 10 10 0 0 0 2022 10 13 23 45 0 900 1 1 0 0 0 1 H9 10 0 59862 0.00000 0 19476758.126 6447056.668 15161998.824 10 0 59862 900.00000 0 20893638.367 7411543.425 12617553.875 10 0 59862 1800.00000 0 22102096.117 8091213.390 9828021.941 10 0 59862 2700.00000 0 23047607.484 8506700.809 6847527.864 10 0 59862 3600.00000 0 23683040.189 8689320.082 3733944.348 10 0 59862 4500.00000 0 23970677.768 8679492.553 547768.334 10 0 59862 5400.00000 0 23883869.388 8524792.398 -2649057.117 10 0 59862 6300.00000 0 23408234.603 8277694.739 -5794352.144 10 0 59862 7200.00000 0 22542371.027 7993121.952 -8826916.294 10 0 59862 8100.00000 0 21298033.914 7725893.021 -11687727.141 10 0 59862 9000.00000 0 19699778.951 7528184.994 -14321097.074 10 0 59862 9900.00000 0 17784082.464 7447115.177 -16675764.756 10 0 59862 10800.00000 0 15597975.335 7522547.615 -18705899.314 10 0 59862 11700.00000 0 13197247.562 7785217.742 -20371997.181 10 0 59862 12600.00000 0 10644298.544 8255255.465 -21641653.742 10 0 59862 13500.00000 0 8005722.947 8941169.943 -22490194.756 10 0 59862 14400.00000 0 5349732.980 9839339.545 -22901155.371 10 0 59862 15300.00000 0 2743524.673 10934029.054 -22866597.661 10 0 59862 16200.00000 0 250697.722 12197933.742 -22387260.909 10 0 59862 17100.00000 0 -2071164.000 13593227.739 -21472542.077 10 0 59862 18000.00000 0 -4172651.039 15073072.710 -20140307.232 10 0 59862 18900.00000 0 -6014337.106 16583523.536 -18416537.953 10 0 59862 19800.00000 0 -7568163.801 18065750.957 -16334819.853 10 0 59862 20700.00000 0 -8818344.949 19458487.696 -13935683.475 10 0 59862 21600.00000 0 -9761754.532 20700595.260 -11265810.623 10 0 59862 22500.00000 0 -10407783.853 21733643.512 -8377121.777 10 0 59862 23400.00000 0 -10777675.823 22504394.503 -5325762.745 10 0 59862 24300.00000 0 -10903366.298 22967086.214 -2171010.497 10 0 59862 25200.00000 0 -10825882.958 23085420.247 1025880.196 10 0 59862 26100.00000 0 -10593370.733 22834170.078 4202866.541 10 0 59862 27000.00000 0 -10258828.304 22200342.485 7298320.606 10 0 59862 27900.00000 0 -9877652.085 21183843.572 10252221.875 10 0 59862 28800.00000 0 -9505091.926 19797621.661 13007316.360 10 0 59862 29700.00000 0 -9193726.091 18067281.103 15510220.119 10 0 59862 30600.00000 0 -8991062.017 16030183.104 17712446.354 10 0 59862 31500.00000 0 -8937363.720 13734070.846 19571336.832 10 0 59862 32400.00000 0 -9063797.050 11235275.708 21050880.521 10 0 59862 33300.00000 0 -9390970.581 8596578.445 22122404.487 10 0 59862 34200.00000 0 -9927933.345 5884813.291 22765124.502 10 0 59862 35100.00000 0 -10671671.697 3168313.213 22966545.434 10 0 59862 36000.00000 0 -11607126.890 514300.965 22722704.089 10 0 59862 36900.00000 0 -12707733.456 -2013667.188 22038249.916 10 0 59862 37800.00000 0 -13936456.919 -4358100.419 20926361.752 10 0 59862 38700.00000 0 -15247288.726 -6469716.642 19408501.617 10 0 59862 39600.00000 0 -16587137.072 -8309242.087 17514009.444 10 0 59862 40500.00000 0 -17898035.711 -9848793.126 15279545.490 10 0 59862 41400.00000 0 -19119579.206 -11072783.366 12748390.034 10 0 59862 42300.00000 0 -20191483.118 -11978318.426 9969612.867 10 0 59862 43200.00000 0 -21056161.925 -12575062.209 6997127.723 10 0 59862 44100.00000 0 -21661216.121 -12884580.433 3888649.289 10 0 59862 45000.00000 0 -21961723.225 -12939189.225 704572.844 10 0 59862 45900.00000 0 -21922235.238 -12780357.604 -2493201.715 10 0 59862 46800.00000 0 -21518397.130 -12456731.710 -5642478.195 10 0 59862 47700.00000 0 -20738116.727 -12021864.885 -8681980.520 10 0 59862 48600.00000 0 -19582235.239 -11531750.394 -11552552.743 10 0 59862 49500.00000 0 -18064668.812 -11042262.145 -14198318.384 10 0 59862 50400.00000 0 -16212013.956 -10606612.708 -16567775.555 10 0 59862 51300.00000 0 -14062632.441 -10272937.230 -18614805.841 10 0 59862 52200.00000 0 -11665253.308 -10082106.393 -20299576.770 10 0 59862 53100.00000 0 -9077150.122 -10065861.697 -21589319.904 10 0 59862 54000.00000 0 -6361969.380 -10245352.492 -22458969.413 10 0 59862 54900.00000 0 -3587300.539 -10630136.988 -22891648.798 10 0 59862 55800.00000 0 -822088.979 -11217689.702 -22878996.537 10 0 59862 56700.00000 0 1866000.588 -11993436.184 -22421324.720 10 0 59862 57600.00000 0 4413160.757 -12931313.635 -21527607.938 10 0 59862 58500.00000 0 6761851.349 -13994833.650 -20215303.032 10 0 59862 59400.00000 0 8862943.002 -15138602.238 -18510003.538 10 0 59862 60300.00000 0 10677506.188 -16310232.914 -16444935.820 10 0 59862 61200.00000 0 12178172.255 -17452572.085 -14060306.980 10 0 59862 62100.00000 0 13350011.197 -18506142.859 -11402517.474 10 0 59862 63000.00000 0 14190891.218 -19411704.125 -8523253.981 10 0 59862 63900.00000 0 14711306.756 -20112816.967 -5478480.525 10 0 59862 64800.00000 0 14933684.148 -20558310.190 -2327347.766 10 0 59862 65700.00000 0 14891195.897 -20704541.044 868958.024 10 0 59862 66600.00000 0 14626135.066 -20517355.933 4048403.534 10 0 59862 67500.00000 0 14187919.694 -19973668.641 7149311.267 10 0 59862 68400.00000 0 13630812.440 -19062589.716 10111553.215 10 0 59862 69300.00000 0 13011452.308 -17786059.624 12877712.193 10 0 59862 70200.00000 0 12386302.888 -16158959.008 15394188.651 10 0 59862 71100.00000 0 11809124.699 -14208691.215 17612232.049 10 0 59862 72000.00000 0 11328577.830 -11974254.159 19488877.436 10 0 59862 72900.00000 0 10986055.370 -9504839.617 20987770.015 10 0 59862 73800.00000 0 10813838.227 -6858017.351 22079862.643 10 0 59862 74700.00000 0 10833648.464 -4097578.573 22743973.574 10 0 59862 75600.00000 0 11055661.575 -1291126.935 22967194.400 10 0 59862 76500.00000 0 11478019.200 1492484.469 22745140.728 10 0 59862 77400.00000 0 12086862.998 4185765.205 22082040.877 10 0 59862 78300.00000 0 12856888.882 6725141.922 20990660.622 10 0 59862 79200.00000 0 13752399.304 9053350.438 19492064.872 10 0 59862 80100.00000 0 14728810.479 11121567.274 17615220.017 10 0 59862 81000.00000 0 15734552.446 12891192.893 15396443.552 10 0 59862 81900.00000 0 16713283.149 14335213.066 12878710.450 10 0 59862 82800.00000 0 17606324.275 15439081.867 10110828.642 10 0 59862 83700.00000 0 18355216.772 16201089.620 7146498.650 10 0 59862 84600.00000 0 18904288.467 16632200.525 4043274.883 10 0 59862 85500.00000 0 19203125.110 16755366.794 861448.562 10 0 59863 0.00000 0 19208839.813 16604348.399 -2337125.776 10 0 59863 900.00000 0 18888043.875 16222088.327 -5490238.697 10 0 59863 1800.00000 0 18218434.477 15658712.601 -8536540.682 10 0 59863 2700.00000 0 17189930.711 14969239.958 -11416744.621 10 0 59863 3600.00000 0 15805308.396 14211098.894 -14074787.352 10 0 59863 4500.00000 0 14080305.556 13441557.894 -16458928.409 10 0 59863 5400.00000 0 12043192.805 12715178.412 -18522763.589 10 0 59863 6300.00000 0 9733825.570 12081399.061 -20226133.035 10 0 59863 7200.00000 0 7202217.133 11582353.757 -21535905.800 10 0 59863 8100.00000 0 4506691.559 11251016.501 -22426625.561 10 0 59863 9000.00000 0 1711693.250 11109751.303 -22881005.026 10 0 59863 9900.00000 0 -1114655.742 11169328.541 -22890259.651 10 0 59863 10800.00000 0 -3903149.135 11428449.068 -22454274.565 10 0 59863 11700.00000 0 -6586132.924 11873795.832 -21581601.825 10 0 59863 12600.00000 0 -9100075.569 12480610.441 -20289288.433 10 0 59863 13500.00000 0 -11387965.507 13213769.911 -18602538.811 10 0 59863 14400.00000 0 -13401436.943 14029317.730 -16554218.555 10 0 59863 15300.00000 0 -15102536.288 14876384.186 -14184209.418 10 0 59863 16200.00000 0 -16465056.823 15699414.574 -11538628.285 10 0 59863 17100.00000 0 -17475387.301 16440610.858 -8668925.570 10 0 59863 18000.00000 0 -18132840.530 17042483.450 -5630880.898 10 0 59863 18900.00000 0 -18449449.940 17450405.148 -2483515.921 10 0 59863 19800.00000 0 -18449244.380 17615059.270 712054.321 10 0 59863 20700.00000 0 -18167033.262 17494678.579 3893808.741 10 0 59863 21600.00000 0 -17646754.630 17056980.515 7000022.991 10 0 59863 22500.00000 0 -16939456.917 16280717.149 9970464.233 10 0 59863 23400.00000 0 -16101000.230 15156774.553 12747554.683 10 0 59863 24300.00000 0 -15189574.500 13688775.240 15277481.683 10 0 59863 25200.00000 0 -14263139.101 11893158.083 17511233.301 10 0 59863 26100.00000 0 -13376891.468 9798731.917 19405540.029 10 0 59863 27000.00000 0 -12580870.682 7445720.752 20923705.227 10 0 59863 27900.00000 0 -11917796.053 4884339.404 22036309.178 10 0 59863 28800.00000 0 -11421230.747 2172957.721 22721773.923 10 0 59863 29700.00000 0 -11114146.887 -624071.738 22966778.712 10 0 59863 30600.00000 0 -11007951.823 -3438833.979 22766518.484 10 0 59863 31500.00000 0 -11102016.230 -6202420.891 22124800.517 10 0 59863 32400.00000 0 -11383723.920 -8847544.684 21053977.162 10 0 59863 33300.00000 0 -11829041.684 -11311088.489 19574715.380 10 0 59863 34200.00000 0 -12403585.921 -13536489.360 17715606.713 10 0 59863 35100.00000 0 -13064142.050 -15475855.660 15512624.137 10 0 59863 36000.00000 0 -13760573.673 -17091731.366 13008435.143 10 0 59863 36900.00000 0 -14438041.861 -18358434.024 10251583.275 10 0 59863 37800.00000 0 -15039441.562 -19262910.660 7295553.016 10 0 59863 38700.00000 0 -15507952.516 -19805075.801 4197735.457 10 0 59863 39600.00000 0 -15789596.765 -19997617.313 1018314.552 10 0 59863 40500.00000 0 -15835694.068 -19865278.200 -2180904.394 10 0 59863 41400.00000 0 -15605110.403 -19443644.703 -5337700.908 10 0 59863 42300.00000 0 -15066203.234 -18777491.954 -8390655.961 10 0 59863 43200.00000 0 -14198379.800 -17918757.497 -11280354.582 10 0 59863 44100.00000 0 -12993200.983 -16924228.770 -13950550.112 10 0 59863 45000.00000 0 -11454982.620 -15853042.960 -16349266.491 10 0 59863 45900.00000 0 -9600867.406 -14764105.573 -18429816.401 10 0 59863 46800.00000 0 -7460363.024 -13713537.400 -20151714.872 10 0 59863 47700.00000 0 -5074364.786 -12752258.260 -21481470.212 10 0 59863 48600.00000 0 -2493702.861 -11923809.800 -22393236.786 10 0 59863 49500.00000 0 222725.888 -11262509.318 -22869317.075 10 0 59863 50400.00000 0 3010163.893 -10792012.312 -22900503.461 10 0 59863 51300.00000 0 5800445.136 -10524343.961 -22486253.484 10 0 59863 52200.00000 0 8524591.879 -10459439.800 -21634695.516 10 0 59863 53100.00000 0 11115448.053 -10585214.232 -20362465.113 10 0 59863 54000.00000 0 13510240.139 -10878153.171 -18694375.579 10 0 59863 54900.00000 0 15652959.523 -11304405.036 -16662929.386 10 0 59863 55800.00000 0 17496467.702 -11821323.222 -14307680.254 10 0 59863 56700.00000 0 19004237.545 -12379394.220 -11674458.522 10 0 59863 57600.00000 0 20151659.040 -12924469.279 -8814475.099 10 0 59863 58500.00000 0 20926856.216 -13400204.777 -5783321.772 10 0 59863 59400.00000 0 21330982.523 -13750607.729 -2639887.617 10 0 59863 60300.00000 0 21377983.853 -13922578.480 554787.144 10 0 59863 61200.00000 0 21093840.641 -13868342.946 3738697.139 10 0 59863 62100.00000 0 20515322.348 -13547671.483 6850074.440 10 0 59863 63000.00000 0 19688307.948 -12929790.639 9828584.328 10 0 59863 63900.00000 0 18665743.963 -11994907.083 12616490.961 10 0 59863 64800.00000 0 17505326.609 -10735279.380 15159770.652 10 0 59863 65700.00000 0 16267005.687 -9155792.241 17409151.684 10 0 59863 66600.00000 0 15010415.025 -7274008.705 19321061.126 10 0 59863 67500.00000 0 13792336.899 -5119697.331 20858461.198 10 0 59863 68400.00000 0 12664306.125 -2733853.130 21991559.897 10 0 59863 69300.00000 0 11670453.413 -167251.882 22698382.967 10 0 59863 70200.00000 0 10845677.498 2521403.469 22965196.897 10 0 59863 71100.00000 0 10214221.739 5267668.983 22786775.231 10 0 59863 72000.00000 0 9788714.240 8003789.253 22166503.198 10 0 59863 72900.00000 0 9569711.295 10661271.218 21116318.454 10 0 59863 73800.00000 0 9545763.204 13173496.971 19656488.523 10 0 59863 74700.00000 0 9693999.911 15478268.316 17815228.397 10 0 59863 75600.00000 0 9981212.259 17520178.402 15628164.647 10 0 59863 76500.00000 0 10365383.963 19252712.418 13137655.224 10 0 59863 77400.00000 0 10797610.327 20639990.096 10391977.059 10 0 59863 78300.00000 0 11224323.262 21658077.362 7444396.225 10 0 59863 79200.00000 0 11589728.879 22295812.133 4352137.985 10 0 59863 80100.00000 0 11838354.538 22555109.344 1175276.425 10 0 59863 81000.00000 0 11917597.160 22450732.174 -2024434.750 10 0 59863 81900.00000 0 11780164.116 22009538.902 -5184767.226 10 0 59863 82800.00000 0 11386302.256 21269237.088 -8244234.716 10 0 59863 83700.00000 0 10705719.303 20276697.740 -11143296.762 10 0 59863 84600.00000 0 9719114.813 19085900.940 -13825525.379 10 0 59863 85500.00000 0 8419254.378 17755600.092 -16238710.851 10 0 59864 0.00000 0 6811540.303 16346804.028 -18335884.265 10 0 59864 900.00000 0 4914052.292 14920182.984 -20076237.390 10 0 59864 1800.00000 0 2757057.378 13533510.185 -21425918.829 10 0 59864 2700.00000 0 382005.633 12239244.630 -22358694.673 10 0 59864 3600.00000 0 -2159945.099 11082358.782 -22856457.972 10 0 59864 4500.00000 0 -4809815.214 10098501.708 -22909578.560 10 0 59864 5400.00000 0 -7503021.823 9312574.565 -22517086.577 10 0 59864 6300.00000 0 -10171837.599 8737777.641 -21686686.502 10 0 59864 7200.00000 0 -12747987.836 8375168.127 -20434601.805 10 0 59864 8100.00000 0 -15165277.915 8213746.136 -18785253.577 10 0 59864 9000.00000 0 -17362142.169 8231064.172 -16770779.641 10 0 59864 9900.00000 0 -19284008.333 8394333.202 -14430403.782 10 0 59864 10800.00000 0 -20885379.666 8661977.527 -11809667.598 10 0 59864 11700.00000 0 -22131548.652 8985571.793 -8959540.087 10 0 59864 12600.00000 0 -22999871.557 9312077.405 -5935422.666 10 0 59864 13500.00000 0 -23480551.718 9586283.056 -2796069.225 10 0 59864 14400.00000 0 -23576899.976 9753345.605 397557.479 10 0 59864 15300.00000 0 -23305062.638 9761323.392 3583470.436 10 0 59864 16200.00000 0 -22693229.704 9563594.627 6699860.798 10 0 59864 17100.00000 0 -21780357.760 9121058.429 9686294.610 10 0 59864 18000.00000 0 -20614462.170 8404025.498 12484880.575 10 0 59864 18900.00000 0 -19250550.961 7393718.518 15041386.503 10 0 59864 19800.00000 0 -17748287.491 6083318.864 17306283.293 10 0 59864 20700.00000 0 -16169479.945 4478515.268 19235696.783 10 0 59864 21600.00000 0 -14575502.527 2597530.749 20792249.977 10 0 59864 22500.00000 0 -13024755.675 470625.769 21945780.200 10 0 59864 23400.00000 0 -11570270.708 -1860902.785 22673918.144 10 0 59864 24300.00000 0 -10257558.065 -4346186.511 22962518.391 10 0 59864 25200.00000 0 -9122788.041 -6926654.982 22805933.534 10 0 59864 26100.00000 0 -8191379.168 -9538233.758 22207126.794 10 0 59864 27000.00000 0 -7477052.497 -12113781.368 21177620.772 10 0 59864 27900.00000 0 -6981390.820 -14585665.677 19737282.784 10 0 59864 28800.00000 0 -6693921.094 -16888373.933 17913950.116 10 0 59864 29700.00000 0 -6592716.570 -18961049.090 15742901.409 10 0 59864 30600.00000 0 -6645493.526 -20749847.611 13266183.204 10 0 59864 31500.00000 0 -6811156.739 -22210020.747 10531803.650 10 0 59864 32400.00000 0 -7041728.842 -23307632.473 7592807.992 10 0 59864 33300.00000 0 -7284582.245 -24020841.976 4506253.048 10 0 59864 34200.00000 0 -7484879.227 -24340696.484 1332100.276 10 0 59864 35100.00000 0 -7588116.577 -24271400.702 -1867951.089 10 0 59864 36000.00000 0 -7542666.338 -23830051.054 -5031667.850 10 0 59864 36900.00000 0 -7302204.028 -23045845.589 -8097499.472 10 0 59864 37800.00000 0 -6827920.235 -21958802.681 -11005783.045 10 0 59864 38700.00000 0 -6090420.453 -20618042.561 -13699912.259 10 0 59864 39600.00000 0 -5071231.258 -19079704.380 -16127446.646 10 0 59864 40500.00000 0 -3763847.593 -17404586.933 -18241138.771 10 0 59864 41400.00000 0 -2174275.407 -15655612.828 -19999858.813 10 0 59864 42300.00000 0 -321045.459 -13895223.293 -21369398.140 10 0 59864 43200.00000 0 1765303.592 -12182813.427 -22323136.166 10 0 59864 44100.00000 0 4043252.157 -10572315.770 -22842557.616 10 0 59864 45000.00000 0 6461794.573 -9110033.543 -22917610.360 10 0 59864 45900.00000 0 8962339.990 -7832814.040 -22546897.216 10 0 59864 46800.00000 0 11480940.455 -6766638.050 -21737698.384 10 0 59864 47700.00000 0 13950753.529 -5925683.564 -20505824.418 10 0 59864 48600.00000 0 16304637.076 -5311901.811 -18875302.946 10 0 59864 49500.00000 0 18477768.347 -4915122.019 -16877905.488 10 0 59864 50400.00000 0 20410178.320 -4713679.071 -14552523.842 10 0 59864 51300.00000 0 22049096.021 -4675536.124 -11944408.392 10 0 59864 52200.00000 0 23351005.387 -4759853.434 -9104283.367 10 0 59864 53100.00000 0 24283329.323 -4918935.947 -6087356.604 10 0 59864 54000.00000 0 24825671.296 -5100476.238 -2952243.327 10 0 59864 54900.00000 0 24970563.448 -5249997.122 240174.803 10 0 59864 55800.00000 0 24723690.819 -5313389.921 3427932.813 10 0 59864 56700.00000 0 24103583.417 -5239440.589 6549184.491 10 0 59864 57600.00000 0 23140790.026 -4982236.530 9543399.972 10 0 59864 58500.00000 0 21876569.312 -4503352.278 12352535.496 10 0 59864 59400.00000 0 20361153.802 -3773721.601 14922152.964 10 0 59864 60300.00000 0 18651659.871 -2775116.948 17202468.025 10 0 59864 61200.00000 0 16809731.348 -1501173.715 19149307.004 10 0 59864 62100.00000 0 14899015.069 42084.195 20724954.964 10 0 59864 63000.00000 0 12982573.271 1836240.311 21898879.420 10 0 59864 63900.00000 0 11120340.096 3851004.190 22648316.492 10 0 59864 64800.00000 0 9366727.263 6045232.334 22958708.948 10 0 59864 65700.00000 0 7768477.663 8368410.433 22823988.159 10 0 59864 66600.00000 0 6362855.300 10762536.836 22246694.697 10 0 59864 67500.00000 0 5176246.093 13164330.674 21237935.107 10 0 59864 68400.00000 0 4223227.099 15507674.465 19817175.160 10 0 59864 69300.00000 0 3506142.497 17726191.055 18011872.790 10 0 59864 70200.00000 0 3015203.727 19755848.839 15856956.772 10 0 59864 71100.00000 0 2729109.375 21537487.606 13394160.072 10 0 59864 72000.00000 0 2616158.820 23019160.001 10671219.673 10 0 59864 72900.00000 0 2635812.777 24158190.861 7740957.434 10 0 59864 73800.00000 0 2740634.934 24922867.971 4660259.024 10 0 59864 74700.00000 0 2878532.555 25293692.783 1488970.474 10 0 59864 75600.00000 0 2995200.946 25264137.948 -1711266.298 10 0 59864 76500.00000 0 3036667.645 24840879.070 -4878216.031 10 0 59864 77400.00000 0 2951827.715 24043490.335 -7950266.653 10 0 59864 78300.00000 0 2694861.565 22903616.297 -10867635.360 10 0 59864 79200.00000 0 2227431.518 21463654.469 -13573539.859 10 0 59864 80100.00000 0 1520562.730 19775004.093 -16015311.022 10 0 59864 81000.00000 0 556127.347 17895954.960 -18145424.560 10 0 59864 81900.00000 0 -672132.265 15889305.266 -19922431.043 10 0 59864 82800.00000 0 -2158085.725 13819808.978 -21311765.771 10 0 59864 83700.00000 0 -3883225.384 11751560.097 -22286422.623 10 0 59864 84600.00000 0 -5817206.238 9745423.602 -22827478.898 10 0 59864 85500.00000 0 -7918893.231 7856620.738 -22924461.109 10 0 59865 0.00000 0 -10137872.604 6132569.488 -22575545.088 10 0 59865 900.00000 0 -12416365.841 4611069.070 -21787586.571 10 0 59865 1800.00000 0 -14691463.540 3318905.845 -20575982.652 10 0 59865 2700.00000 0 -16897590.198 2270934.629 -18964366.497 10 0 59865 3600.00000 0 -18969094.247 1469674.808 -16984141.874 10 0 59865 4500.00000 0 -20842856.446 905435.638 -14673866.750 10 0 59865 5400.00000 0 -22460807.739 556963.895 -12078498.144 10 0 59865 6300.00000 0 -23772251.542 392584.908 -9248513.124 10 0 59865 7200.00000 0 -24735893.680 371787.358 -6238923.370 10 0 59865 8100.00000 0 -25321495.444 447183.486 -3108202.759 10 0 59865 9000.00000 0 -25511081.171 566760.716 82850.918 10 0 59865 9900.00000 0 -25299650.365 676328.572 3272297.544 10 0 59865 10800.00000 0 -24695365.354 722056.678 6398256.401 10 0 59865 11700.00000 0 -23719207.329 652996.051 9400104.573 10 0 59865 12600.00000 0 -22404115.945 423476.846 12219648.660 10 0 59865 13500.00000 0 -20793649.105 -4718.877 14802247.373 10 0 59865 14400.00000 0 -18940219.345 -660501.129 17097863.672 10 0 59865 15300.00000 0 -16902980.724 -1562011.026 19062026.660 10 0 59865 16200.00000 0 -14745454.227 -2715616.607 20656685.435 10 0 59865 17100.00000 0 -12532990.234 -4115408.130 21850939.281 10 0 59865 18000.00000 0 -10330173.042 -5743214.712 22621630.900 10 0 59865 18900.00000 0 -8198274.507 -7569142.714 22953791.957 10 0 59865 19800.00000 0 -6192861.593 -9552614.754 22840932.876 10 0 59865 20700.00000 0 -4361656.256 -11643867.498 22285171.444 10 0 59865 21600.00000 0 -2742735.562 -13785847.496 21297197.625 10 0 59865 22500.00000 0 -1363145.973 -15916427.782 19896074.763 10 0 59865 23400.00000 0 -237988.806 -17970854.350 18108880.216 10 0 59865 24300.00000 0 629985.587 -19884321.870 15970191.361 10 0 59865 25200.00000 0 1250258.357 -21594572.146 13521425.745 10 0 59865 26100.00000 0 1643902.654 -23044407.287 10810047.089 10 0 59865 27000.00000 0 1842451.092 -24184012.662 7888651.537 10 0 59865 27900.00000 0 1886318.045 -24972992.044 4813951.109 10 0 59865 28800.00000 0 1822843.485 -25382028.996 1645673.771 10 0 59865 29700.00000 0 1704041.397 -25394103.913 -1554598.592 10 0 59865 30600.00000 0 1584148.599 -25005214.585 -4724631.427 10 0 59865 31500.00000 0 1517078.539 -24224569.079 -7802753.931 10 0 59865 32400.00000 0 1553888.964 -23074241.973 -10729066.196 10 0 59865 33300.00000 0 1740371.958 -21588307.790 -13446612.707 10 0 59865 34200.00000 0 2114869.727 -19811487.707 -15902498.351 10 0 59865 35100.00000 0 2706409.958 -17797366.270 -18048924.507 10 0 59865 36000.00000 0 3533240.953 -15606253.018 -19844124.425 10 0 59865 36900.00000 0 4601829.685 -13302778.933 -21253179.312 10 0 59865 37800.00000 0 5906366.154 -10953328.621 -22248699.122 10 0 59865 38700.00000 0 7428796.019 -8623415.808 -22811354.907 10 0 59865 39600.00000 0 9139380.888 -6375111.949 -22930252.583 10 0 59865 40500.00000 0 10997763.505 -4264635.130 -22603141.208 10 0 59865 41400.00000 0 12954493.693 -2340199.434 -21836452.100 10 0 59865 42300.00000 0 14952951.487 -640213.822 -20645168.392 10 0 59865 43200.00000 0 16931587.224 808095.381 -19052527.923 10 0 59865 44100.00000 0 18826385.034 1989582.213 -17089565.484 10 0 59865 45000.00000 0 20573446.679 2901563.041 -14794503.589 10 0 59865 45900.00000 0 22111587.714 3553668.564 -12212003.861 10 0 59865 46800.00000 0 23384837.353 3967173.918 -9392293.773 10 0 59865 47700.00000 0 24344737.430 4173836.877 -6390186.054 10 0 59865 48600.00000 0 24952344.342 4214294.786 -3264010.117 10 0 59865 49500.00000 0 25179850.366 4136089.372 -74476.558 10 0 59865 50400.00000 0 25011756.715 3991404.062 3116502.799 10 0 59865 51300.00000 0 24445549.679 3834610.408 6247016.151 10 0 59865 52200.00000 0 23491851.948 3719728.000 9256350.819 10 0 59865 53100.00000 0 22174043.309 3697905.624 12086166.822 10 0 59865 54000.00000 0 20527366.968 3815030.252 14681622.446 10 0 59865 54900.00000 0 18597559.114 4109564.865 16992430.392 10 0 59865 55800.00000 0 16439059.023 4610706.221 18973824.612 10 0 59865 56700.00000 0 14112874.130 5336940.198 20587419.954 10 0 59865 57600.00000 0 11684188.486 6295055.661 21801948.828 10 0 59865 58500.00000 0 9219813.415 7479658.647 22593861.505 10 0 59865 59400.00000 0 6785585.335 8873207.983 22947779.158 10 0 59865 60300.00000 0 4443817.658 10446571.878 22856791.478 10 0 59865 61200.00000 0 2250911.452 12160083.476 22322593.257 10 0 59865 62100.00000 0 255222.860 13965052.816 21355457.247 10 0 59865 63000.00000 0 -1504725.241 15805673.644 19974043.300 10 0 59865 63900.00000 0 -3001613.818 17621246.977 18205046.733 10 0 59865 64800.00000 0 -4220224.214 19348629.940 16082691.700 10 0 59865 65700.00000 0 -5157823.784 20924808.619 13648078.204 10 0 59865 66600.00000 0 -5824024.849 22289487.949 10948394.324 10 0 59865 67500.00000 0 -6240123.211 23387590.421 8036007.928 10 0 59865 68400.00000 0 -6437944.248 24171558.695 4967454.686 10 0 59865 69300.00000 0 -6458245.436 24603364.793 1802341.710 10 0 59865 70200.00000 0 -6348743.051 24656140.585 -1397811.981 10 0 59865 71100.00000 0 -6161847.029 24315359.895 -4570775.364 10 0 59865 72000.00000 0 -5952200.450 23579521.289 -7654821.658 10 0 59865 72900.00000 0 -5774128.803 22460301.737 -10589936.488 10 0 59865 73800.00000 0 -5679108.119 20982173.649 -13318993.570 10 0 59865 74700.00000 0 -5713360.367 19181500.705 -15788874.056 10 0 59865 75600.00000 0 -5915679.151 17105149.901 -17951507.005 10 0 59865 76500.00000 0 -6315578.906 14808677.803 -19764810.133 10 0 59865 77400.00000 0 -6931846.907 12354166.956 -21193512.116 10 0 59865 78300.00000 0 -7771560.256 9807803.045 -22209840.313 10 0 59865 79200.00000 0 -8829610.150 7237294.118 -22794060.624 10 0 59865 80100.00000 0 -10088754.163 4709239.707 -22934859.187 10 0 59865 81000.00000 0 -11520194.887 2286559.411 -22629558.848 10 0 59865 81900.00000 0 -13084661.077 26087.762 -21884166.571 10 0 59865 82800.00000 0 -14733946.137 -2023564.942 -20713251.262 10 0 59865 83700.00000 0 -16412839.582 -3823797.615 -19139654.717 10 0 59865 84600.00000 0 -18061370.594 -5347375.976 -17194041.579 10 0 59865 85500.00000 0 -19617269.515 -6579307.481 -14914297.338 99